Location: Newark
(45.5000°N, 11.4167°E)
Time: 16:37:52
(UTC+00:00)

Explorer 11/Cluster Stage 4 - Pass Details

Date: 25 August 2019
Orbit: 467 x 1259 km, 28.8° (Epoch: 22 October)

Event Time Altitude Azimuth Distance (km) Brightness Sun altitude
Rises 09:13:52 0° 225° (SW) 4,031 10.2 46.5°
Reaches altitude 10° 09:17:30 10° 210° (SSW) 3,152 9.9 47.0°
Maximum altitude 09:22:57 20° 167° (SSE) 2,540 10.2 47.7°
Drops below altitude 10° 09:28:29 10° 124° (SE) 3,222 10.6 48.3°
Sets 09:32:15 0° 109° (ESE) 4,148 10.8 48.8°
